Flag for Switzerland Weather past 2 weeks in Bellinzona, Ticino, Switzerland

Now
64 °F

Mild.


Feels Like: 64 °F
Forecast: 50 / 80 °F
Wind: 3 mph from East

Location: Locarno-Magadino

Current Time: May 26, 2015 at 10:14:34 AM

Latest Report: May 26, 2015 at 9:00 AM


Visibility: N/A

Pressure: 29.82 "Hg

Humidity: 61%

Dew point: 50 °F

Location of BellinzonaLocation

Historic Weather in Bellinzona — Graph

°F

Bellinzona temperature yesterday

Maximum temperature yesterday: 72 °F (at 5:00 PM)
Minimum temperature yesterday: 50 °F (at 3:00 AM)
Average temperature yesterday: 60 °F

Past Weeks' High & Low Weather Summary

 TemperatureHumidityPressure
High81 °F (May 14, 4:00 PM)98% (May 14, 4:00 AM)30.32 "Hg (May 14, 4:00 AM)
Low47 °F (May 21, 2:00 AM)26% (May 21, 4:00 PM)29.63 "Hg (May 15, 8:00 AM)
Average63 °F68%29.94 "Hg
* Reported May 11 8:00 AM — May 26 8:00 AM, Bellinzona, Weather by CustomWeather, © 2015

Note: Actual official high and low records may vary slightly from our data, if they occured in-between our weather recording intervals... More about our weather records

Advertising

Bellinzona weather history for previous 24 hours

 ConditionsComfort  
Time TempWeatherWind HumidityBarometerVisibility
8:00 AM
Tue, May 26
60 °FCool.2 mph61%29.82 "HgN/A
7:00 AM57 °FCool.2 mph66%29.83 "HgN/A
6:00 AM53 °FCool.5 mph81%29.84 "HgN/A
5:00 AM55 °FCool.5 mph79%29.84 "HgN/A
4:00 AM58 °FCool.5 mph72%29.83 "HgN/A
3:00 AM60 °FCool.3 mph63%29.83 "HgN/A
2:00 AM61 °FCool.8 mph65%29.83 "HgN/A
1:00 AM63 °FMild.12 mph58%29.84 "HgN/A
12:00 AM60 °FCool.2 mph84%29.84 "HgN/A
10:00 PM
Mon, May 25
60 °FCool.2 mph85%29.81 "HgN/A
9:00 PM64 °FMild.3 mph79%29.79 "HgN/A
8:00 PM67 °FMild.1 mph65%29.79 "HgN/A
7:00 PM69 °FMild.2 mph58%29.78 "HgN/A
6:00 PM71 °FMild.3 mph51%29.78 "HgN/A
5:00 PM72 °FMild.5 mph47%29.80 "HgN/A
4:00 PM69 °FMild.3 mph56%29.82 "HgN/A
3:00 PM71 °FMild.3 mph52%29.83 "HgN/A
2:00 PM68 °FMild.2 mph53%29.85 "HgN/A
1:00 PM65 °FMild.1 mph55%29.88 "HgN/A
12:00 PM63 °FMild.1 mph64%29.90 "HgN/A
11:00 AM62 °FCool.1 mph71%29.92 "HgN/A
10:00 AM59 °FCool.No wind77%29.93 "HgN/A
Weather by CustomWeather, © 2015

See weather overviewHow to use our weather pages